Location: ??? ???
(33.4974°N, 35.4618°E)
Time: 12:19:45
(UTC+00:00)

Cosmos 1745 Rocket - Pass Details

Date: 29 October 2020
Orbit: 953 x 997 km, 83.0° (Epoch: 26 November)

Event Time Altitude Azimuth Distance (km) Brightness Sun altitude
Rises 16:26:21 0° 351° (N) 3,697 7.1 -20.9°
Reaches altitude 10° 16:28:52 10° 350° (N) 2,750 6.4 -21.4°
Maximum altitude 16:35:10 76° 267° (W) 1,024 4.2 -22.7°
Drops below altitude 10° 16:41:29 10° 182° (S) 2,753 6.4 -24.0°
Sets 16:44:00 0° 181° (S) 3,700 7.1 -24.5°
